Simultaneous Nadir Overpasses (SNOs) Predictions

Prediction of SNOs between GOES-17 and TERRA Satellite Orbit:

Table of predicted SNOs for the next 14.0 days since TLE Epoch: 4/22/2023
Index Date Time (GOES-17) GOES-17 Lat,Lon TERRA Lat,Lon Distance(km) Time Diff (sec)
1 04/23/2023 16:54:22 -0.01,-104.75 -0.71,-101.41 379.88 80
2 04/24/2023 05:14:44 0.01,-104.72 -0.32,-106.36 185.74 80
3 04/26/2023 04:55:52 0.01,-104.72 0.50,-102.44 259.08 80
4 04/26/2023 17:16:05 -0.01,-104.75 0.53,-107.36 296.40 80
5 04/28/2023 17:02:32 -0.00,-104.76 -0.26,-103.44 148.98 80
6 04/29/2023 05:22:54 0.00,-104.73 -0.76,-108.39 416.17 80
7 05/01/2023 05:04:01 0.00,-104.73 0.06,-104.47 29.58 80
8 05/03/2023 04:47:48 0.00,-104.74 0.91,-100.56 475.66 80
9 05/03/2023 17:08:01 -0.00,-104.77 0.15,-105.47 79.70 80
10 05/05/2023 16:54:27 0.00,-104.77 -0.67,-101.55 366.56 80
